Time,TemperatureF,DewpointF,PressureIn,WindDirection,WindDirectionDegrees,WindSpeedMPH,WindSpeedGustMPH,Humidity,HourlyPrecipIn,Conditions,Clouds,dailyrainin,SoftwareType,DateUTC
2013-02-11 00:00:00,50.5,48.3,29.79,ENE,68,1.5,7.6,92,0.00,,---,0.00,VWS V12.08,2013-02-11 05:00:00,
2013-02-11 00:16:00,50.3,48.1,29.79,ENE,68,6.9,0.0,92,0.00,,---,7.36,VWS V12.08,2013-02-11 05:16:00,
2013-02-11 00:20:00,50.3,47.8,29.79,ESE,112,9.6,9.6,91,0.00,,---,7.36,VWS V12.08,2013-02-11 05:20:00,
2013-02-11 00:31:00,50.1,47.9,29.79,ENE,68,5.5,0.0,92,0.00,,---,7.36,VWS V12.08,2013-02-11 05:31:00,
2013-02-11 00:46:00,50.1,47.6,29.79,SE,135,4.4,12.9,91,0.00,,---,7.36,VWS V12.08,2013-02-11 05:46:00,
2013-02-11 01:07:00,50.1,47.6,29.78,ENE,68,4.6,9.1,91,0.00,,---,7.36,VWS V12.08,2013-02-11 06:07:00,
2013-02-11 01:26:00,49.8,47.3,29.77,East,90,2.2,7.3,91,0.00,,---,7.36,VWS V12.08,2013-02-11 06:26:00,
2013-02-11 01:46:00,49.8,47.6,29.80,SE,135,4.9,8.9,92,0.00,,---,7.36,VWS V12.08,2013-02-11 06:46:00,
2013-02-11 02:02:00,49.8,47.6,29.78,ENE,68,5.8,5.8,92,0.00,,---,7.36,VWS V12.08,2013-02-11 07:02:00,
2013-02-11 02:16:00,49.8,47.6,29.79,SE,135,4.6,9.1,92,0.00,,---,7.36,VWS V12.08,2013-02-11 07:16:00,
2013-02-11 02:20:00,49.8,47.6,29.80,SE,135,0.0,9.1,92,0.00,,---,7.36,VWS V12.08,2013-02-11 07:20:00,
2013-02-11 02:32:00,49.8,47.6,29.80,SE,135,0.0,0.0,92,0.00,,---,7.36,VWS V12.08,2013-02-11 07:32:00,
2013-02-11 02:40:00,49.8,47.6,29.81,ESE,112,0.0,2.4,92,0.00,,---,7.36,VWS V12.08,2013-02-11 07:40:00,
2013-02-11 02:52:00,50.0,47.8,29.81,SE,135,1.5,0.0,92,0.00,,---,7.36,VWS V12.08,2013-02-11 07:52:00,
2013-02-11 03:00:00,50.1,47.9,29.81,East,90,4.6,4.6,92,0.00,,---,7.36,VWS V12.08,2013-02-11 08:00:00,
2013-02-11 03:11:00,50.1,47.9,29.81,SE,135,9.1,9.1,92,0.00,,---,7.36,VWS V12.08,2013-02-11 08:11:00,
2013-02-11 03:20:00,50.3,48.1,29.81,SE,135,3.8,9.1,92,0.02,,---,7.38,VWS V12.08,2013-02-11 08:20:00,
2013-02-11 03:32:00,50.5,48.3,29.82,SE,135,0.0,0.0,92,0.04,,---,7.40,VWS V12.08,2013-02-11 08:32:00,
2013-02-11 03:49:00,50.5,48.3,29.82,SE,135,0.0,3.8,92,0.04,,---,7.40,VWS V12.08,2013-02-11 08:49:00,
2013-02-11 04:07:00,50.5,48.3,29.81,ESE,112,0.0,2.0,92,0.06,,---,7.42,VWS V12.08,2013-02-11 09:07:00,
2013-02-11 04:26:00,50.7,48.5,29.80,SE,135,0.0,4.4,92,0.04,,---,7.42,VWS V12.08,2013-02-11 09:26:00,
2013-02-11 04:31:00,50.5,48.3,29.79,ENE,68,0.0,0.0,92,0.02,,---,7.42,VWS V12.08,2013-02-11 09:31:00,
2013-02-11 04:47:00,50.5,48.3,29.79,ESE,112,0.0,0.0,92,0.02,,---,7.42,VWS V12.08,2013-02-11 09:47:00,
2013-02-11 05:08:00,50.3,48.1,29.79,SE,135,0.0,2.4,92,0.00,,---,7.42,VWS V12.08,2013-02-11 10:08:00,
2013-02-11 05:26:00,50.5,48.3,29.79,SSE,158,0.0,3.3,92,0.00,,---,7.42,VWS V12.08,2013-02-11 10:26:00,
2013-02-11 05:31:00,50.5,48.3,29.79,SSE,158,0.0,0.0,92,0.00,,---,7.42,VWS V12.08,2013-02-11 10:31:00,
2013-02-11 05:46:00,50.7,48.5,29.79,SSE,158,0.0,0.0,92,0.00,,---,7.42,VWS V12.08,2013-02-11 10:46:00,
2013-02-11 06:07:00,51.0,48.8,29.79,South,180,0.0,0.0,92,0.02,,---,7.44,VWS V12.08,2013-02-11 11:07:00,
2013-02-11 06:26:00,51.4,49.2,29.81,SSE,158,0.0,0.0,92,0.04,,---,7.46,VWS V12.08,2013-02-11 11:26:00,
2013-02-11 06:31:00,51.4,49.2,29.80,SSE,158,0.0,0.0,92,0.04,,---,7.46,VWS V12.08,2013-02-11 11:31:00,
2013-02-11 06:46:00,51.6,49.4,29.80,SSW,202,0.0,0.0,92,0.04,,---,7.46,VWS V12.08,2013-02-11 11:46:00,
2013-02-11 07:07:00,51.6,49.4,29.81,SE,135,0.0,5.5,92,0.02,,---,7.46,VWS V12.08,2013-02-11 12:07:00,
2013-02-11 07:26:00,51.6,49.4,29.82,SW,225,0.0,0.0,92,0.00,,---,7.46,VWS V12.08,2013-02-11 12:26:00,
2013-02-11 07:31:00,51.6,49.4,29.82,WSW,248,0.0,0.0,92,0.00,,---,7.46,VWS V12.08,2013-02-11 12:31:00,
2013-02-11 07:46:00,51.8,49.5,29.83,South,180,0.0,0.0,92,0.00,,---,7.46,VWS V12.08,2013-02-11 12:46:00,
2013-02-11 08:01:00,51.8,49.5,29.83,West,270,0.0,0.0,92,0.00,,---,7.46,VWS V12.08,2013-02-11 13:01:00,
2013-02-11 08:16:00,51.6,49.4,29.82,SSW,202,0.0,0.0,92,0.00,,---,7.46,VWS V12.08,2013-02-11 13:16:00,
2013-02-11 08:20:00,51.8,49.5,29.82,SSW,202,0.0,0.0,92,0.00,,---,7.46,VWS V12.08,2013-02-11 13:20:00,
2013-02-11 08:31:00,51.8,49.5,29.82,SW,225,0.0,0.0,92,0.00,,---,7.46,VWS V12.08,2013-02-11 13:31:00,
2013-02-11 08:46:00,51.9,49.7,29.84,SSW,202,0.0,1.1,92,0.00,,---,7.46,VWS V12.08,2013-02-11 13:46:00,
2013-02-11 09:07:00,51.9,49.7,29.86,South,180,0.0,0.0,92,0.00,,---,7.46,VWS V12.08,2013-02-11 14:07:00,
2013-02-11 09:26:00,51.9,49.9,29.84,South,180,0.0,0.0,93,0.00,,---,7.46,VWS V12.08,2013-02-11 14:26:00,
2013-02-11 09:31:00,52.1,50.1,29.85,SSW,202,0.0,1.7,93,0.00,,---,7.46,VWS V12.08,2013-02-11 14:31:00,
2013-02-11 09:46:00,52.3,50.3,29.85,West,270,0.0,1.7,93,0.00,,---,7.46,VWS V12.08,2013-02-11 14:46:00,
2013-02-11 10:07:00,52.3,50.3,29.87,SW,225,0.0,0.0,93,0.00,,---,7.46,VWS V12.08,2013-02-11 15:07:00,
2013-02-11 10:16:00,52.3,50.3,29.87,NE,45,0.0,0.0,93,0.00,,---,7.46,VWS V12.08,2013-02-11 15:16:00,
2013-02-11 10:20:00,52.3,50.0,29.87,NE,45,0.0,0.0,92,0.00,,---,7.46,VWS V12.08,2013-02-11 15:20:00,
2013-02-11 10:31:00,52.1,50.1,29.88,South,180,0.0,0.0,93,0.00,,---,7.46,VWS V12.08,2013-02-11 15:31:00,
2013-02-11 10:46:00,52.3,50.0,29.88,East,90,0.0,6.4,92,0.00,,---,7.46,VWS V12.08,2013-02-11 15:46:00,
2013-02-11 11:01:00,52.3,50.0,29.86,SW,225,0.0,0.0,92,0.00,,---,7.46,VWS V12.08,2013-02-11 16:01:00,
2013-02-11 11:16:00,52.3,49.8,29.86,SSE,158,0.0,0.0,91,0.00,,---,7.46,VWS V12.08,2013-02-11 16:16:00,
2013-02-11 11:20:00,52.1,49.6,29.86,SSW,202,0.0,0.0,91,0.00,,---,7.46,VWS V12.08,2013-02-11 16:20:00,
2013-02-11 11:31:00,51.9,48.8,29.86,East,90,0.0,0.0,89,0.00,,---,7.46,VWS V12.08,2013-02-11 16:31:00,
2013-02-11 11:46:00,51.8,48.7,29.86,East,90,0.0,0.0,89,0.00,,---,7.46,VWS V12.08,2013-02-11 16:46:00,
2013-02-11 12:01:00,51.9,48.8,29.88,ENE,68,0.0,0.0,89,0.00,,---,7.46,VWS V12.08,2013-02-11 17:01:00,
2013-02-11 12:16:00,51.9,48.2,29.88,NNE,22,0.0,0.0,87,0.00,,---,7.46,VWS V12.08,2013-02-11 17:16:00,
2013-02-11 12:20:00,51.9,48.2,29.88,WSW,248,0.0,0.0,87,0.00,,---,7.46,VWS V12.08,2013-02-11 17:20:00,
2013-02-11 12:31:00,51.9,47.5,29.88,ESE,112,0.0,0.0,85,0.00,,---,7.46,VWS V12.08,2013-02-11 17:31:00,
2013-02-11 12:47:00,51.9,47.2,29.88,NE,45,0.0,1.1,84,0.00,,---,7.46,VWS V12.08,2013-02-11 17:47:00,
2013-02-11 13:07:00,51.9,46.6,29.88,South,180,0.0,0.0,82,0.00,,---,7.46,VWS V12.08,2013-02-11 18:07:00,
2013-02-11 13:17:00,51.9,45.6,29.87,ENE,68,0.0,4.9,79,0.00,,---,7.46,VWS V12.08,2013-02-11 18:17:00,
2013-02-11 13:20:00,51.8,45.5,29.87,SE,135,0.0,4.9,79,0.00,,---,7.46,VWS V12.08,2013-02-11 18:20:00,
2013-02-11 13:31:00,51.6,44.6,29.86,WSW,248,0.0,0.0,77,0.00,,---,7.46,VWS V12.08,2013-02-11 18:31:00,
2013-02-11 13:46:00,51.6,44.6,29.86,East,90,0.0,0.0,77,0.00,,---,7.46,VWS V12.08,2013-02-11 18:46:00,
2013-02-11 14:01:00,51.6,44.3,29.86,ENE,68,0.0,0.0,76,0.00,,---,7.46,VWS V12.08,2013-02-11 19:01:00,
2013-02-11 14:16:00,51.6,44.0,29.86,East,90,0.0,1.1,75,0.00,,---,7.46,VWS V12.08,2013-02-11 19:16:00,
2013-02-11 14:20:00,51.4,43.8,29.86,ENE,68,0.0,1.1,75,0.00,,---,7.46,VWS V12.08,2013-02-11 19:20:00,
2013-02-11 14:31:00,51.4,43.4,29.87,ESE,112,0.0,0.0,74,0.00,,---,7.46,VWS V12.08,2013-02-11 19:31:00,
2013-02-11 14:46:00,51.4,43.0,29.86,East,90,0.0,0.0,73,0.00,,---,7.46,VWS V12.08,2013-02-11 19:46:00,
2013-02-11 15:01:00,51.8,42.7,29.85,NNE,22,0.0,0.0,71,0.00,,---,7.46,VWS V12.08,2013-02-11 20:01:00,
2013-02-11 15:16:00,51.6,41.8,29.85,West,270,0.0,0.0,69,0.00,,---,7.46,VWS V12.08,2013-02-11 20:16:00,
2013-02-11 15:20:00,51.6,41.4,29.85,East,90,0.0,0.0,68,0.00,,---,7.46,VWS V12.08,2013-02-11 20:20:00,
2013-02-11 15:31:00,51.6,41.4,29.86,NE,45,0.0,0.0,68,0.00,,---,7.46,VWS V12.08,2013-02-11 20:31:00,
2013-02-11 15:46:00,51.6,41.8,29.86,ESE,112,0.0,0.0,69,0.00,,---,7.46,VWS V12.08,2013-02-11 20:46:00,
2013-02-11 16:01:00,51.2,40.6,29.85,SE,135,0.0,0.0,67,0.00,,---,7.46,VWS V12.08,2013-02-11 21:01:00,
2013-02-11 16:16:00,51.0,40.1,29.85,SSE,158,0.0,0.0,66,0.00,,---,7.46,VWS V12.08,2013-02-11 21:16:00,
2013-02-11 16:20:00,51.0,40.1,29.85,South,180,0.0,0.0,66,0.00,,---,7.46,VWS V12.08,2013-02-11 21:20:00,
2013-02-11 16:31:00,51.0,39.7,29.85,SE,135,0.0,0.0,65,0.00,,---,7.46,VWS V12.08,2013-02-11 21:31:00,
2013-02-11 16:46:00,50.9,40.0,29.84,ESE,112,0.0,0.0,66,0.00,,---,7.46,VWS V12.08,2013-02-11 21:46:00,
2013-02-11 17:01:00,50.9,40.0,29.84,SSW,202,0.0,1.3,66,0.00,,---,7.46,VWS V12.08,2013-02-11 22:01:00,
2013-02-11 17:16:00,50.7,39.8,29.84,NE,45,0.0,0.0,66,0.00,,---,7.46,VWS V12.08,2013-02-11 22:16:00,
2013-02-11 17:20:00,50.5,40.0,29.84,SSW,202,0.0,0.0,67,0.00,,---,7.46,VWS V12.08,2013-02-11 22:20:00,
2013-02-11 17:31:00,50.5,40.0,29.85,NNW,338,0.0,0.0,67,0.00,,---,7.46,VWS V12.08,2013-02-11 22:31:00,
2013-02-11 17:46:00,50.1,39.6,29.85,West,270,0.0,0.0,67,0.00,,---,7.46,VWS V12.08,2013-02-11 22:46:00,
2013-02-11 18:01:00,49.8,39.3,29.86,East,90,0.0,0.0,67,0.00,,---,7.46,VWS V12.08,2013-02-11 23:01:00,
2013-02-11 18:16:00,49.2,38.3,29.85,WNW,292,0.0,0.0,66,0.00,,---,7.46,VWS V12.08,2013-02-11 23:16:00,
2013-02-11 18:20:00,49.1,38.2,29.85,WNW,292,0.0,0.0,66,0.00,,---,7.46,VWS V12.08,2013-02-11 23:20:00,
2013-02-11 18:31:00,48.9,38.4,29.85,West,270,0.0,0.0,67,0.00,,---,7.46,VWS V12.08,2013-02-11 23:31:00,
2013-02-11 18:46:00,48.7,38.2,29.84,West,270,0.0,0.0,67,0.00,,---,7.46,VWS V12.08,2013-02-11 23:46:00,
2013-02-11 19:02:00,48.2,38.2,29.85,West,270,0.0,0.0,68,0.00,,---,7.46,VWS V12.08,2013-02-12 00:02:00,
2013-02-11 19:16:00,47.8,38.1,29.85,West,270,0.0,0.0,69,0.00,,---,7.46,VWS V12.08,2013-02-12 00:16:00,
2013-02-11 19:20:00,47.4,38.1,29.86,West,270,0.0,0.0,70,0.00,,---,7.46,VWS V12.08,2013-02-12 00:20:00,
2013-02-11 19:31:00,47.1,37.8,29.86,West,270,0.0,0.0,70,0.00,,---,7.46,VWS V12.08,2013-02-12 00:31:00,
2013-02-11 19:46:00,46.9,37.6,29.86,West,270,0.0,0.0,70,0.00,,---,7.46,VWS V12.08,2013-02-12 00:46:00,
2013-02-11 20:02:00,46.7,36.7,29.85,South,180,0.0,0.0,68,0.00,,---,7.46,VWS V12.08,2013-02-12 01:02:00,
2013-02-11 20:16:00,46.5,36.5,29.86,South,180,0.0,0.0,68,0.00,,---,7.46,VWS V12.08,2013-02-12 01:16:00,
2013-02-11 20:20:00,46.5,36.2,29.86,South,180,0.0,0.0,67,0.00,,---,7.46,VWS V12.08,2013-02-12 01:20:00,
2013-02-11 20:32:00,46.5,35.8,29.86,SW,225,0.0,0.0,66,0.00,,---,7.46,VWS V12.08,2013-02-12 01:32:00,
2013-02-11 20:49:00,46.5,35.8,29.85,SW,225,0.0,0.0,66,0.00,,---,7.46,VWS V12.08,2013-02-12 01:49:00,
2013-02-11 21:01:00,46.2,35.5,29.85,SW,225,0.0,0.0,66,0.00,,---,7.46,VWS V12.08,2013-02-12 02:01:00,
2013-02-11 21:16:00,46.2,35.1,29.87,WSW,248,0.0,0.0,65,0.00,,---,7.46,VWS V12.08,2013-02-12 02:16:00,
2013-02-11 21:20:00,46.2,35.1,29.88,WSW,248,0.0,0.0,65,0.00,,---,7.46,VWS V12.08,2013-02-12 02:20:00,
2013-02-11 21:32:00,46.2,35.1,29.87,West,270,0.0,0.0,65,0.00,,---,7.46,VWS V12.08,2013-02-12 02:32:00,
2013-02-11 21:49:00,46.2,35.1,29.87,South,180,0.0,0.0,65,0.00,,---,7.46,VWS V12.08,2013-02-12 02:49:00,
2013-02-11 22:07:00,46.2,34.7,29.86,SSW,202,0.0,0.0,64,0.00,,---,7.46,VWS V12.08,2013-02-12 03:07:00,
2013-02-11 22:26:00,45.8,34.3,29.85,SW,225,0.0,0.0,64,0.00,,---,7.46,VWS V12.08,2013-02-12 03:26:00,
2013-02-11 22:31:00,45.6,33.8,29.89,West,270,0.0,0.0,63,0.00,,---,7.46,VWS V12.08,2013-02-12 03:31:00,
2013-02-11 22:47:00,45.6,34.1,29.90,WNW,292,0.0,0.0,64,0.00,,---,7.46,VWS V12.08,2013-02-12 03:47:00,
2013-02-11 23:07:00,45.5,34.0,29.88,South,180,0.0,0.0,64,0.00,,---,7.46,VWS V12.08,2013-02-12 04:07:00,
2013-02-11 23:26:00,45.3,33.5,29.85,West,270,0.0,0.0,63,0.00,,---,7.46,VWS V12.08,2013-02-12 04:26:00,
2013-02-11 23:31:00,45.1,33.3,29.87,WSW,248,0.0,0.0,63,0.00,,---,7.46,VWS V12.08,2013-02-12 04:31:00,
2013-02-11 23:46:00,45.1,33.3,29.87,WSW,248,0.0,0.0,63,0.00,,---,7.46,VWS V12.08,2013-02-12 04:46:00,